Showing default

KINEIS-1A, 60084

Orbit data source: Space-Track

KINEIS-1A, 60084 is a French payload satellite in SSO that was launched on Thu, 20 Jun 2024 UTC via an ELECTRON launch vehicle from the Rocket Lab Launch Complex (RLLC). Payloads include a variety of satellites, spacecraft, and rockets equipped with specific instruments for various scientific and technological missions. These include communications satellites like Starlink; space stations such as the ISS; scientific satellites like the Hubble; Earth observation satellites from companies like Planet Labs, Umbra, and HawkEye 360; GPS; miniature CubeSats for education and research; and military/defense satellites.

Loading next visibility...
KINEIS-1A details
Identifier
60084, 2024-114F
Orbit
SSO
Last TLE update12 hours ago
Origin
Flag of FRKINEIS (FR)
ManufacturerKINEIS
MissionOperational Commercial Communications
Bus & MotorCUBESAT 16U, Unknown motor
Mass28 kg wet, 28 kg dry
Launch date (UTC)
2024-06-20 (6 months ago)
Launch vehicle
ELECTRON
Launch site
Rocket Lab Launch Complex (RLLC)
Object type
Payload
Rocket body
Debris
Shape & HBRBox + 2 Pan + 1 Ant, 1.6 m
Radar Cross Section0.229 m², Medium (>0.1 m² and < 1m²)

Expand to show TLE details & history

TLE from 12 hours ago
0 KINEIS-1A
1 60084U 24114F   24356.12127698  .00002148  00000-0  30243-3 0  9996
2 60084  98.0212  11.2128 0003895  81.4611 278.7041 14.78345508 27073
Epoch: 2024-12-21T02:54Z
Definitive object data (Epoch: 2024-12-21T02:54:38.331Z)
Latitude0.00001°
Longitude-122.6239°
Altitude637.155 km
Speed7.54 km/s
True Right ascension00h 44m 51s
True Declination0° 00' 00"
Sunlit
Object was in daylight at TLE epoch
Visualization TLE readout
Latitude41.80128°
Longitude65.07291°
Altitude639.216 km
Speed7.543 km/s
Apparent Right ascension08h 58m 27s
Apparent Declination31° 18' 50"
Sunlit
Object is in daylight
Visualization observer readout
Local Sidereal Time13:56:20
Azimuth287.014° WNW
Elevation30.59°
Doppler factor1
Orbital elements
Apogee altitude634.33 km
Perigee altitude628.87 km
Semi-major axis7,009.737 km
Eccentricity0.0003895
Inclination98.0212°
RAAN11.2128°
Arg. of periapsis81.4611°
True anomaly278.65998°
Mean anomaly278.7041°
Eccentric anomaly278.68204°
Mean motion3.6982 °/min
BSTAR0.00030243
Orbital period97.34 mins
Loading maneuver chart data...
Loading historical data...
Loading historical data...
Loading historical data...
Loading historical data...
Loading historical data...
Loading historical data...
Loading historical data...

KINEIS-1A Visibility forecast

Observer location: undefined°, undefined

Span
Click to sort rows by Start time (UTC) header in descending order
Start Az.
Max El. time (UTC)
Max El. Az.
Max El.
End time (UTC)
End Az.
4 mins2024-12-22 00:12:08.591Z91.667° ESE2024-12-22 00:13:08.591Z75.148° E17.459°2024-12-22 00:16:08.591Z27.488° NE
6 mins2024-12-22 01:47:08.591Z203.33° SW2024-12-22 01:50:08.591Z275.777° WNW31.381°2024-12-22 01:53:08.591Z326.958° NNW
6 mins2024-12-22 13:37:08.591Z43.066° NE2024-12-22 13:39:08.591Z87.263° E31.539°2024-12-22 13:43:08.591Z165.174° S
|